Location: Julian California
(33.0790°N, 116.6010°W)
Time: 23:53:54
(UTC-07:00)

Cosmos 371 Rocket - Pass Details

Date: 12 July 2018
Orbit: 684 x 699 km, 74.0° (Epoch: 24 September)

Event Time Altitude Azimuth Distance (km) Brightness Sun altitude
Rises 20:35:02 0° 346° (NNW) 3,077 7.4 -7.7°
Reaches altitude 10° 20:37:22 10° 349° (N) 2,158 6.5 -8.1°
Maximum altitude 20:42:13 66° 72° (ENE) 759 3.4 -9.0°
Drops below altitude 10° 20:47:02 10° 155° (SSE) 2,149 5.3 -9.8°
Enters shadow 20:47:23 - 156° (SSE) 2,286 5.4 -9.9°
